GS-1

Last updated on Sun Sep 06 2026 00:03:01 GMT+0000 (Coordinated Universal Time)

1 56372U 23060C 26247.96958758 -.00000208 00000+0 00000+0 0 9991 2 56372 2.9248 78.8249 0003004 276.2915 65.0819 1.00253082 8331
UTC large
Height (km)
Speed (km/s)
/
Latitude / Longitude
Inclination (degrees)
Orbital Period (minutes)
Azimuth
Elevation
Range (km)
Doppler Factor

Next 0 passes for location: London (51.5072 / 0.1276)

No passes found over London.
GS-1